#timestamp,LO_Frequency,Hit,StdDev 
1502812815.1,286046998.9,N,1.5
1502812835.9,286046999.0,N,1.5
1502812855.7,286047000.9,N,1.5
1502812875.5,286047000.5,N,1.4
1502812895.4,286047001.1,N,1.4
1502812915.2,286046998.1,N,1.4
1502812935.1,286046998.9,N,1.4
1502812936.0,286046998.9,N,1.4
1502812955.8,286047001.2,N,1.4
1502812975.6,286046998.6,N,1.4
1502812995.5,286046998.6,N,1.4
1502813015.3,286046999.3,N,1.2
1502813035.2,286046996.5,N,1.3
1502813055.9,286046999.6,N,1.3
1502813075.7,286046996.8,N,1.4
1502813095.6,286046999.6,N,1.4
1502813115.4,286046999.5,N,1.4
1502813135.3,286046997.0,N,1.3
1502813155.1,286046997.4,N,1.2
1502813156.0,286046997.4,N,1.2
1502813175.8,286046997.6,N,1.2
1502813195.7,286046997.3,N,1.2
1502813215.5,286046997.7,N,1.2
1502813235.3,286046995.2,Y,0.0
1502813255.2,286046996.5,P,1.2
1502813275.0,286046996.7,N,1.0
1502813275.9,286046996.7,P,0.9
1502813295.8,286046996.7,Y,0.0
1502813315.6,286047000.7,P,1.8
1502813335.4,286047000.2,N,1.6
1502813355.3,286046999.8,N,1.4
1502813375.1,286047002.7,N,1.8
1502813395.9,286047002.8,N,1.9
1502813415.7,286047001.7,N,1.8
1502813435.5,286047001.7,N,1.7
1502813455.4,286047001.6,N,1.6
1502813475.2,286047002.1,N,1.6
1502813495.1,286047002.8,N,1.6
1502813496.0,286047002.8,N,1.6
1502813515.8,286047002.2,N,1.6
1502813535.6,286047002.7,N,1.5
1502813555.5,286047002.8,N,1.5
1502813575.3,286047002.5,N,1.5
1502813595.2,286047001.6,N,1.4
1502813615.9,286047004.3,N,1.5
1502813635.7,286047001.4,N,1.5
1502813655.6,286047001.4,N,1.5
1502813675.4,286047004.4,Y,0.0
1502813695.2,286047002.4,P,0.3
1502813715.1,286047002.4,P,0.3
1502813716.0,286047002.4,P,0.3
1502813735.8,286047002.1,Y,0.0
1502813755.7,286047001.0,P,0.6
1502813775.5,286047000.6,N,0.7
1502813795.3,286047000.5,N,0.7
1502813815.2,286046999.9,N,0.8
1502813835.0,286047000.7,N,0.7
1502813835.9,286047000.7,N,0.7
1502813855.8,286047000.4,N,0.6
1502813875.6,286047000.6,N,0.6
1502813895.4,286047000.2,N,0.6
1502813915.3,286046999.9,N,0.6
1502813935.1,286047000.3,N,0.6
1502813955.9,286046999.9,N,0.6
1502813975.7,286046999.9,N,0.6
1502813995.5,286046999.9,N,0.6
1502814015.4,286047002.4,Y,0.0
1502814035.2,286047000.4,P,0.0
1502814055.1,286047000.3,P,0.1
1502814056.0,286047000.3,P,0.1
1502814075.8,286047000.2,N,0.1
1502814095.6,286047000.2,N,0.1
1502814115.5,286047000.4,Y,0.0
1502814135.3,286047000.6,P,0.1
1502814155.2,286047000.8,P,0.2
1502814175.9,286047001.2,P,0.3
1502814195.7,286047001.2,Y,0.0
1502814215.6,286046998.2,P,1.3
1502814235.4,286047001.2,N,1.3
1502814255.2,286047000.1,N,1.1
1502814275.1,286046999.7,N,1.0
1502814276.0,286046999.7,N,0.9
1502814295.8,286047000.2,N,0.9
1502814315.7,286046999.9,N,0.8
1502814335.5,286047000.4,N,0.8
1502814355.3,286047000.5,N,0.8
1502814375.2,286046999.9,N,0.7
1502814395.0,286047000.2,N,0.7
1502814395.9,286047000.2,N,0.7
1502814415.8,286047002.4,Y,0.0
1502814435.6,286047002.6,P,1.3
1502814455.5,286047002.0,N,1.1
1502814475.3,286047002.7,N,1.1
1502814495.1,286047002.5,N,1.0
1502814515.9,286047002.3,N,0.9
1502814535.7,286047002.4,N,0.8
1502814555.6,286047001.9,N,0.8
1502814575.4,286047004.4,Y,0.0
1502814595.2,286047000.2,P,0.9
1502814615.1,286047002.7,N,1.1
1502814616.0,286047002.7,N,1.0
1502814635.8,286047001.5,N,0.9
1502814655.7,286047002.2,N,0.9
1502814675.5,286046999.7,N,1.1
1502814695.3,286047002.5,N,1.1
1502814715.2,286047001.5,N,1.0
1502814735.0,286047002.1,N,1.0
1502814735.9,286047002.1,N,0.9
1502814755.8,286047002.5,N,0.9
1502814775.6,286047001.8,N,0.9
1502814795.4,286047002.5,N,0.9
1502814815.3,286047002.6,N,0.9
1502814835.1,286047002.6,N,0.8
1502814855.8,286047002.1,N,0.8
1502814875.7,286047002.0,N,0.8
1502814895.5,286047002.1,N,0.8
1502814915.4,286047001.7,N,0.8
1502814935.2,286047002.0,N,0.7
1502814955.0,286047003.9,Y,0.0
1502814956.0,286047003.9,P,1.0
1502814975.8,286046999.8,N,1.7
1502814995.6,286047000.1,N,1.6
1502815015.5,286047002.8,N,1.6
1502815035.3,286047002.2,N,1.4
1502815055.1,286047002.3,N,1.3
1502815075.9,286047000.1,N,1.4
1502815095.7,286047002.1,N,1.3
1502815115.6,286047002.2,N,1.3
1502815135.4,286047002.2,N,1.2
1502815155.2,286047002.0,N,1.2
1502815175.1,286047002.5,N,1.1
1502815176.0,286047002.5,N,1.1
1502815195.8,286047002.5,N,1.1
1502815215.7,286046999.7,N,1.2
1502815235.5,286047002.5,N,1.1
1502815255.3,286047000.2,N,1.2
1502815275.2,286047002.1,N,1.1
1502815295.0,286047002.0,N,1.1
1502815295.9,286047002.0,N,1.1
1502815315.8,286047002.7,N,1.1
1502815335.6,286047001.9,N,1.1
1502815355.4,286047001.7,N,1.0
1502815375.3,286047001.8,N,1.0
1502815395.1,286047001.7,N,1.0
1502815415.9,286047001.4,N,1.0
1502815435.7,286047001.5,N,1.0
1502815455.5,286047001.9,N,1.0
1502815475.4,286047001.6,N,0.9
1502815495.2,286047001.7,N,0.9
1502815515.1,286047002.1,N,0.9
1502815516.0,286047002.1,N,0.8
1502815535.8,286047002.1,N,0.7
1502815555.6,286047001.6,N,0.7
1502815575.5,286047004.3,Y,0.0
1502815595.3,286047000.2,P,0.8
1502815615.2,286046999.9,N,0.8
1502815635.9,286047000.1,N,0.8
1502815655.7,286047002.8,Y,0.0
1502815675.6,286047001.1,P,0.3
1502815695.4,286047001.1,P,0.3
1502815715.3,286047002.7,P,0.8
1502815735.1,286046999.7,N,1.0
1502815736.0,286046999.7,N,1.0
1502815755.8,286047002.4,N,1.1
1502815775.7,286047002.7,N,1.2
1502815795.5,286047002.3,N,1.2
1502815815.4,286047002.6,N,1.2
1502815835.2,286047002.7,N,1.2
1502815855.0,286047002.2,N,1.1
1502815855.9,286047002.2,N,1.1
1502815875.8,286047002.7,N,1.1
1502815895.6,286047002.8,N,1.1
1502815915.4,286047000.1,N,1.1
1502815935.3,286047002.7,N,1.1
1502815955.1,286046999.9,N,1.2
1502815975.9,286047000.3,N,1.2
1502815995.7,286047002.7,N,1.2
1502816015.5,286047000.0,N,1.2
1502816035.4,286046999.7,N,1.2
1502816055.2,286047002.8,N,1.2
1502816075.1,286047002.7,N,1.2
1502816076.0,286047002.7,N,1.2
1502816095.8,286047002.5,N,1.2
1502816115.6,286047002.3,N,1.2
1502816135.5,286047002.0,N,1.2
1502816155.3,286047002.7,N,1.2
1502816175.1,286047002.7,N,1.2
1502816195.9,286047002.5,N,1.1
1502816215.7,286047002.6,N,1.1
1502816235.6,286047002.3,N,1.1
1502816255.4,286047002.8,N,1.1
1502816275.2,286047002.2,N,1.1
1502816295.1,286047002.3,N,1.0
1502816296.0,286047002.3,N,1.0
1502816315.8,286047002.2,N,1.0
1502816335.7,286047002.3,N,1.0
1502816355.5,286047002.1,N,1.0
1502816375.3,286047002.0,N,0.9
1502816395.2,286047002.5,N,1.0
